This is the latest recevied weather packets stored in our database for station/object AJ5AG. If no packets are shown the sender has not sent any weather packets the latest 10 day(s).
| Time | Temp. | Humidity | Pressure | Rain* | Wind** | Luminosity | Snow |
|---|---|---|---|---|---|---|---|
| 1777649176 | 15° C | 98% | 1016.4 hPa | 0 mm | - | 51 W/m² | - |
| 1777648873 | 15° C | 98% | 1016.3 hPa | 0 mm | - | 45 W/m² | - |
| 1777648266 | 15° C | 98% | 1015.9 hPa | 0 mm | - | 43 W/m² | - |
| 1777647961 | 15° C | 98% | 1015.8 hPa | 0 mm | - | 56 W/m² | - |
| 1777647659 | 15° C | 98% | 1015.8 hPa | 0 mm | - | 62 W/m² | - |
| 1777647355 | 15° C | 98% | 1015.9 hPa | 0 mm | - | 91 W/m² | - |
| 1777647053 | 15° C | 98% | 1015.8 hPa | 0 mm | - | 136 W/m² | - |
| 1777646749 | 15° C | 98% | 1015.7 hPa | 1.27 mm | - | 130 W/m² | - |
| 1777646444 | 15° C | 98% | 1015.6 hPa | 1.27 mm | - | 127 W/m² | - |
| 1777646141 | 15° C | 98% | 1015.7 hPa | 0 mm | - | 136 W/m² | - |
| 1777645838 | 15° C | 98% | 1015.8 hPa | 1.78 mm | - | 76 W/m² | - |
| 1777645535 | 15° C | 98% | 1016.2 hPa | 1.78 mm | - | 51 W/m² | - |
| 1777645231 | 15° C | 98% | 1016.7 hPa | 3.05 mm | - | 33 W/m² | - |
| 1777644927 | 15° C | 98% | 1016.7 hPa | 1.27 mm | - | 22 W/m² | - |
| 1777644625 | 15° C | 98% | 1016.5 hPa | 1.78 mm | - | 22 W/m² | - |
| 1777644321 | 15° C | 98% | 1016.8 hPa | 0 mm | - | 24 W/m² | - |
| 1777644017 | 15° C | 98% | 1016.6 hPa | 0 mm | - | 14 W/m² | - |
| 1777643714 | 15° C | 98% | 1016.5 hPa | 1.27 mm | - | 14 W/m² | - |
| 1777643412 | 15° C | 98% | 1015.9 hPa | 1.27 mm | - | 18 W/m² | - |
| 1777643108 | 15° C | 98% | 1015.9 hPa | 0 mm | - | 19 W/m² | - |
| 1777642805 | 15° C | 98% | 1015.8 hPa | 3.05 mm | - | 18 W/m² | - |
| 1777642501 | 15° C | 98% | 1015.5 hPa | 3.05 mm | - | 19 W/m² | - |
| 1777642198 | 15° C | 98% | 1016 hPa | 3.05 mm | - | 18 W/m² | - |
| 1777641896 | 15° C | 98% | 1015.8 hPa | 4.32 mm | - | 18 W/m² | - |
| 1777641596 | 15° C | 98% | 1016.3 hPa | 4.83 mm | - | 16 W/m² | - |
* Rain latest hour (hover to see other rain measurements)
** Current wind speed in m/s (hover to see current wind gust speed)